Regional Weather Roundup
Issued by NWS Huntsville, AL

Home | Current Version | Previous Version | Text Only | Print | Product List | Glossary On
Versions: 1 2 3 4 5 6 7 8 9 10 11 12 13 14 15 16 17 18 19 20 21 22 23 24 25 26 27 28 29 30 31 32 33 34 35 36 37 38 39 40 41 42 43 44 45 46 47 48 49 50
000
ASUS44 KHUN 271110
RWRHUN

WEATHER ROUNDUP FOR THE TENNESSEE VALLEY
NATIONAL WEATHER SERVICE HUNTSVILLE AL
600 AM CDT WED AUG 27 2014

ALZ001>004-271200-
NORTHWEST ALABAMA

CITY           SKY/WX    TMP DP  RH WIND       PRES   REMARKS
COURTLAND HCN    N/A     64 N/A N/A CALM        N/A
RUSSELLVILLE     N/A     61 N/A N/A MISG        N/A
SHOALS AIRPORT FOG       64  62  93 CALM      30.10R VSB 1/4
SHOALS TVA RES   N/A     64 N/A N/A MISG        N/A
$$

ALZ005>007-016-271200-
NORTH CENTRAL ALABAMA

CITY           SKY/WX    TMP DP  RH WIND       PRES   REMARKS
CULLMAN AG STN   N/A     63 N/A N/A CALM        N/A
DECATUR AP     CLEAR     64  63  96 CALM      30.09R
HUNTSVILLE AP  PTCLDY    69  65  86 CALM      30.09R
MERIDIANVILLE    N/A     63  61  94 CALM      30.10R FOG
VINEMONT AP    FAIR      62  61  99 CALM      30.11S FOG
$$

ALZ008>010-271200-
NORTHEAST ALABAMA

CITY           SKY/WX    TMP DP  RH WIND       PRES   REMARKS
ALBERTVILLE    FOG       64  64 100 N5        30.10R VSB 1/4
FORT PAYNE     PTCLDY    61  59  94 CALM      30.10R
SCOTTSBORO AP  FOG       66  66 100 NE3       30.11R VSB 1/4
SCOTTSBORO HCN   N/A     66 N/A N/A MISG        N/A
VALLEY HEAD      N/A     63 N/A N/A MISG        N/A
$$

TNZ076-096-097-271200-
SOUTHEASTERN MIDDLE TENNESSEE

CITY           SKY/WX    TMP DP  RH WIND       PRES   REMARKS
FAYETTEVILLE   CLEAR     64  64 100 NE3       30.11R
TULLAHOMA      PTCLDY    63  61  94 CALM      30.13R
WINCHESTER     CLEAR     63  63 100 CALM      30.12R
$$

...SURROUNDING SITES...

CITY           SKY/WX    TMP DP  RH WIND       PRES   REMARKS
ATLANTA        PTCLDY    66  59  78 E7        30.09R
ANNISTON       CLEAR     65  62  90 NE3       30.09R
BIRMINGHAM     CLEAR     66  62  87 CALM      30.09R
CHATTANOOGA    PTCLDY    68  64  87 CALM      30.11R
CORINTH        FOG       66  64  94 CALM      30.08R VSB 1/4
DALTON         CLEAR     63  63 100 CALM      30.11R
GADSDEN        CLEAR     63  61  94 CALM      30.08S
GOLDEN TRNGL   CLEAR     66  61  82 CALM      30.06R
HALEYVILLE     FAIR      63  63 100 CALM      30.12R
JACKSON TN     CLEAR     68  66  94 CALM      30.08S FOG
LEWISBURG      FAIR      63  61  93 CALM      30.10R
MEMPHIS        PTCLDY    77  68  73 CALM      30.07S
MURFREESBORO   FAIR      68  66  93 CALM      30.09S
NASHVILLE      MOCLDY    71  69  93 CALM      30.09S
ROME           CLEAR     62  61  96 CALM      30.10R
SAVANNAH       CLEAR     64  64 100 CALM      30.09R
TUPELO         CLEAR     67  65  93 NE5       30.07R
TUSCALOOSA     CLEAR     65  63  93 CALM      30.06R
$$

...GULF COAST WEATHER...

CITY           SKY/WX    TMP DP  RH WIND       PRES   REMARKS
GULFPORT       CLEAR     76  72  87 NE3       29.98R
PASCAGOULA     CLEAR     71  70  96 CALM      29.99R
MOBILE         PTCLDY    73  69  87 CALM      30.00R
GULF SHORES    SUNNY     71  69  93 CALM      29.99R
PENSACOLA      MOCLDY    72  71  97 N3        29.98R
DESTIN         CLEAR     79  74  84 E5        30.00R
PANAMA CITY    CLEAR     74  72  93 NE6       30.01R
APPALACHICOLA  PTCLDY    74  71  91 NE6       29.99R
$$




USA.gov is the U.S. government's official web portal to all federal, state and local government web resources and services.